CW4713 Weather Reports


Display with metric or nautical units.
time (UTC)temp
F
wind
direction
speed
MPH
gust
MPH
rain 1hr
in
rain 24hr
in
rain mn
in
humidity
%
barometer
mb
20260904062306 54 14 0.0 0.0 0.00 0.00 0.00 78 1020.1
20260904061804 54 14 0.0 0.0 0.00 0.00 0.00 78 1020.1
20260904061304 54 14 0.0 0.0 0.00 0.00 0.00 77 1020.0
20260904060804 54 14 0.0 0.0 0.00 0.00 0.00 76 1020.1
20260904060304 55 14 0.0 0.0 0.00 0.00 0.00 76 1020.0
20260904050304 58 69 0.0 0.0 0.00 0.00 0.00 69 1019.7
20260904035804 60 118 0.0 5.0 0.00 0.00 0.00 61 1019.6
20260904024804 62 318 0.0 0.0 0.00 0.00 0.00 57 1019.9
20260904024305 62 326 1.0 2.0 0.00 0.00 0.00 57 1020.0
20260904023805 62 310 0.0 2.0 0.00 0.00 0.00 58 1020.0
20260904023305 61 350 0.0 2.0 0.00 0.00 0.00 58 1019.9
20260904022805 61 145 0.0 0.0 0.00 0.00 0.00 57 1019.8
20260904022306 61 145 0.0 0.0 0.00 0.00 0.00 58 1019.8
20260904021804 61 145 0.0 0.0 0.00 0.00 0.00 58 1019.8
20260904021304 61 145 0.0 1.0 0.00 0.00 0.00 57 1019.7
20260904020804 61 174 1.0 2.0 0.00 0.00 0.00 57 1019.7
20260904020304 61 2 0.0 1.0 0.00 0.00 0.00 57 1019.5
20260904015805 61 166 1.0 2.0 0.00 0.00 0.00 56 1019.4
20260904015306 62 173 2.0 5.0 0.00 0.00 0.00 56 1019.7
20260904014804 62 157 2.0 3.0 0.00 0.00 0.00 55 1019.5
20260904014304 62 139 1.0 3.0 0.00 0.00 0.00 55 1019.7
20260904013804 62 161 0.0 2.0 0.00 0.00 0.00 55 1019.6
20260904013304 62 169 1.0 5.0 0.00 0.00 0.00 55 1019.6
20260904012804 62 228 2.0 5.0 0.00 0.00 0.00 55 1019.6
20260904012306 62 237 1.0 5.0 0.00 0.00 0.00 55 1019.6
20260904011804 62 210 3.0 6.0 0.00 0.00 0.00 55 1019.5
20260904011305 62 272 1.0 6.0 0.00 0.00 0.00 54 1019.4
20260904010804 62 225 5.0 8.0 0.00 0.00 0.00 54 1019.4
20260904010304 62 226 0.0 0.0 0.00 0.00 0.00 54 1019.2
20260904005804 63 226 0.0 1.0 0.00 0.00 0.00 53 1019.2
20260904005306 63 295 1.0 2.0 0.00 0.00 0.00 53 1019.2
20260904004305 63 353 2.0 3.0 0.00 0.00 0.00 53 1019.2
20260904003804 63 337 2.0 3.0 0.00 0.00 0.00 53 1019.2
20260904003304 63 342 1.0 2.0 0.00 0.00 0.00 54 1019.3
20260904002805 63 329 0.0 0.0 0.00 0.00 0.00 54 1019.6
20260904002306 63 329 0.0 2.0 0.00 0.00 0.00 54 1019.7
20260904001804 63 285 0.0 3.0 0.00 0.00 0.00 54 1019.8
20260904001305 63 285 1.0 3.0 0.00 0.00 0.00 54 1019.7
20260904000805 63 291 1.0 2.0 0.00 0.00 0.00 54 1019.7
20260904000305 63 258 0.0 1.0 0.00 0.00 0.00 54 1019.7
20260903235804 63 245 2.0 5.0 0.00 0.00 0.00 55 1019.6
20260903235305 63 274 0.0 3.0 0.00 0.00 0.00 55 1019.7
20260903234804 63 313 1.0 5.0 0.00 0.00 0.00 55 1019.7
20260903234304 63 302 0.0 2.0 0.00 0.00 0.00 56 1019.6
20260903233804 63 8 1.0 3.0 0.00 0.00 0.00 55 1019.4
20260903233304 63 319 0.0 1.0 0.00 0.00 0.00 55 1019.3
20260903232804 63 274 0.0 1.0 0.00 0.00 0.00 55 1019.2
20260903232306 63 323 2.0 3.0 0.00 0.00 0.00 56 1019.3
20260903231804 63 227 1.0 3.0 0.00 0.00 0.00 55 1019.4
20260903231304 63 273 1.0 6.0 0.00 0.00 0.00 55 1019.4
20260903230804 63 347 4.0 7.0 0.00 0.00 0.00 55 1019.2
20260903230304 62 1 0.0 1.0 0.00 0.00 0.00 55 1019.1
20260903225804 62 48 2.0 5.0 0.00 0.00 0.00 55 1019.1
20260903225306 62 13 2.0 5.0 0.00 0.00 0.00 56 1019.0
20260903224803 62 334 2.0 3.0 0.00 0.00 0.00 56 1019.0
20260903214304 61 13 2.0 5.0 0.00 0.00 0.00 61 1019.7
20260903213304 61 280 1.0 6.0 0.00 0.00 0.00 62 1019.5
20260903212804 61 4 2.0 8.0 0.00 0.00 0.00 62 1019.5
20260903212306 61 12 4.0 7.0 0.00 0.00 0.00 63 1019.5
20260903211804 60 320 2.0 5.0 0.00 0.00 0.00 63 1019.4
20260903211304 60 292 1.0 5.0 0.00 0.00 0.00 63 1019.4
20260903210804 60 355 2.0 5.0 0.00 0.00 0.00 63 1019.4
20260903210305 60 348 1.0 5.0 0.00 0.00 0.00 63 1019.4
20260903205804 59 353 3.0 7.0 0.00 0.00 0.00 63 1019.3
20260903205306 60 8 2.0 7.0 0.00 0.00 0.00 63 1019.3
20260903204804 59 355 4.0 6.0 0.00 0.00 0.00 63 1019.4
20260903204304 59 358 0.0 5.0 0.00 0.00 0.00 64 1019.5
20260903203804 59 332 1.0 3.0 0.00 0.00 0.00 64 1019.6
20260903203304 59 54 2.0 7.0 0.00 0.00 0.00 64 1019.7
20260903202804 59 354 5.0 7.0 0.00 0.00 0.00 64 1019.6
20260903202306 58 328 1.0 2.0 0.00 0.00 0.00 65 1019.7
20260903201805 58 210 1.0 5.0 0.00 0.00 0.00 66 1019.7
20260903201304 58 336 5.0 6.0 0.00 0.00 0.00 66 1019.7
20260903200804 58 0 5.0 7.0 0.00 0.00 0.00 66 1019.7
20260903200304 58 337 2.0 5.0 0.00 0.00 0.00 68 1019.7
20260903195805 57 335 2.0 6.0 0.00 0.00 0.00 69 1019.7
20260903195306 57 333 2.0 5.0 0.00 0.00 0.00 69 1019.6
20260903194804 57 318 1.0 3.0 0.00 0.00 0.00 70 1019.5
20260903194304 57 302 1.0 3.0 0.00 0.00 0.00 71 1019.4
20260903193804 56 305 0.0 0.0 0.00 0.00 0.00 71 1019.4
20260903193304 56 345 2.0 3.0 0.00 0.00 0.00 72 1019.3
20260903192804 56 359 0.0 3.0 0.00 0.00 0.00 73 1019.3
20260903182804 52 301 0.0 2.0 0.00 0.00 0.00 83 1019.7
20260903182306 51 3 1.0 2.0 0.00 0.00 0.00 84 1019.8
20260903181804 51 250 0.0 0.0 0.00 0.00 0.00 84 1019.8
20260903181304 50 250 0.0 2.0 0.00 0.00 0.00 85 1019.9
20260903180804 50 27 0.0 0.0 0.00 0.00 0.00 86 1019.7
20260903180304 49 27 0.0 1.0 0.00 0.00 0.00 87 1019.6
20260903175804 49 139 0.0 1.0 0.00 0.00 0.00 88 1019.5
20260903175306 49 140 0.0 1.0 0.00 0.00 0.00 89 1019.5
20260903174804 48 189 1.0 2.0 0.00 0.00 0.00 89 1019.5
20260903174304 47 34 0.0 0.0 0.00 0.00 0.00 90 1019.6
20260903173804 47 34 0.0 0.0 0.00 0.00 0.00 90 1019.7
20260903173304 47 29 0.0 1.0 0.00 0.00 0.00 91 1019.6
20260903172804 46 243 0.0 0.0 0.00 0.00 0.00 91 1019.6
20260903172306 46 243 0.0 0.0 0.00 0.00 0.00 91 1019.7
20260903171804 46 243 0.0 0.0 0.00 0.00 0.00 91 1019.4
20260903171303 45 240 2.0 3.0 0.00 0.00 0.00 91 1019.4
20260903170803 45 176 1.0 2.0 0.00 0.00 0.00 91 1019.2
20260903170303 45 95 0.0 0.0 0.00 0.00 0.00 92 1019.2
20260903165803 44 95 0.0 0.0 0.00 0.00 0.00 92 1019.4
20260903165306 44 95 0.0 0.0 0.00 0.00 0.00 91 1019.3
20260903164803 44 95 0.0 0.0 0.00 0.00 0.00 92 1019.2
20260903164304 44 95 0.0 0.0 0.00 0.00 0.00 92 1019.1
20260903163804 43 95 0.0 0.0 0.00 0.00 0.00 92 1019.1
20260903163304 43 95 1.0 2.0 0.00 0.00 0.00 92 1019.2
20260903162804 42 148 0.0 0.0 0.00 0.00 0.00 92 1019.2
20260903162306 42 148 0.0 0.0 0.00 0.00 0.00 92 1019.1
20260903161805 42 148 0.0 0.0 0.00 0.00 0.00 92 1018.9
20260903161305 42 148 1.0 1.0 0.00 0.00 0.00 92 1018.9
20260903160804 41 185 1.0 1.0 0.00 0.00 0.00 92 1018.8
20260903160304 41 148 0.0 0.0 0.00 0.00 0.00 92 1018.8
20260903155804 41 148 0.0 0.0 0.00 0.00 0.00 92 1018.9
20260903155306 41 148 0.0 0.0 0.00 0.00 0.00 92 1019.0
20260903154805 41 148 0.0 0.0 0.00 0.00 0.00 92 1019.0
20260903154304 41 148 0.0 0.0 0.00 0.00 0.00 92 1019.0
20260903153805 41 148 0.0 0.0 0.00 0.00 0.00 91 1019.0
20260903153304 40 148 0.0 0.0 0.00 0.00 0.00 91 1019.0
20260903152804 40 148 0.0 0.0 0.00 0.00 0.00 92 1019.0
20260903152306 40 148 0.0 0.0 0.00 0.00 0.00 91 1019.1
20260903151304 40 148 0.0 0.0 0.00 0.00 0.00 91 1019.3
20260903150803 40 148 0.0 0.0 0.00 0.00 0.00 91 1019.2
20260903150304 40 148 0.0 0.0 0.00 0.00 0.00 91 1019.2
20260903145804 40 156 1.0 2.0 0.00 0.00 0.00 91 1019.2
20260903145306 40 182 0.0 0.0 0.00 0.00 0.00 91 1019.2
20260903144804 40 182 0.0 0.0 0.00 0.00 0.00 91 1019.2
20260903144304 40 182 0.0 0.0 0.00 0.00 0.00 91 1019.0
20260903143804 40 182 0.0 0.0 0.00 0.00 0.00 91 1019.1
20260903143304 39 182 0.0 0.0 0.00 0.00 0.00 91 1019.1
20260903142803 39 182 0.0 1.0 0.00 0.00 0.00 91 1019.0
20260903142306 39 181 2.0 2.0 0.00 0.00 0.00 91 1018.9
20260903141804 39 27 0.0 0.0 0.00 0.00 0.00 91 1018.9
20260903141305 39 27 0.0 0.0 0.00 0.00 0.00 91 1018.8
20260903140804 39 27 0.0 0.0 0.00 0.00 0.00 91 1018.9
20260903140304 39 27 0.0 0.0 0.00 0.00 0.00 91 1018.8
20260903135804 39 27 0.0 0.0 0.00 0.00 0.00 90 1018.8
20260903135306 39 27 0.0 0.0 0.00 0.00 0.00 90 1018.8
20260903134805 39 27 0.0 0.0 0.00 0.00 0.00 90 1018.7
20260903134304 38 27 0.0 0.0 0.00 0.00 0.00 90 1018.9
20260903133804 38 27 0.0 0.0 0.00 0.00 0.00 90 1019.0
20260903133304 39 27 0.0 0.0 0.00 0.00 0.00 90 1018.9
20260903132805 39 151 0.0 2.0 0.00 0.00 0.00 90 1018.8
20260903132306 39 23 0.0 2.0 0.00 0.00 0.00 90 1018.7
20260903131805 39 20 0.0 0.0 0.00 0.00 0.00 90 1018.7
20260903131305 39 20 0.0 0.0 0.00 0.00 0.00 90 1018.6
20260903130805 39 20 0.0 0.0 0.00 0.00 0.00 90 1018.7
20260903130304 39 20 0.0 0.0 0.00 0.00 0.00 90 1018.7
20260903125804 39 20 0.0 1.0 0.00 0.00 0.00 90 1018.7
20260903125305 39 350 0.0 1.0 0.00 0.00 0.00 90 1018.6
20260903124804 39 157 0.0 0.0 0.00 0.00 0.00 90 1018.6
20260903124304 39 157 0.0 0.0 0.00 0.00 0.00 90 1018.6
20260903123804 39 157 0.0 0.0 0.00 0.00 0.00 89 1018.5
20260903123304 39 157 0.0 1.0 0.00 0.00 0.00 89 1018.6
20260903122804 39 160 0.0 1.0 0.00 0.00 0.00 89 1018.7
20260903122305 39 168 0.0 0.0 0.00 0.00 0.00 89 1018.6
20260903121803 40 168 0.0 0.0 0.00 0.00 0.00 89 1018.6
20260903121304 39 168 0.0 0.0 0.00 0.00 0.00 89 1018.6
20260903120804 40 165 2.0 3.0 0.00 0.00 0.00 89 1018.6
20260903120304 40 85 0.0 2.0 0.00 0.00 0.00 89 1018.5
20260903105804 40 103 0.0 0.0 0.00 0.00 0.00 88 1018.0
20260903105306 40 103 0.0 1.0 0.00 0.00 0.00 87 1018.0
20260903104806 40 186 2.0 3.0 0.00 0.00 0.00 87 1018.1
20260903104304 40 217 3.0 5.0 0.00 0.00 0.00 87 1018.1
20260903103804 40 155 0.0 0.0 0.00 0.00 0.00 87 1017.9
20260903103304 40 155 0.0 0.0 0.00 0.00 0.00 87 1017.8
20260903102804 40 155 0.0 0.0 0.00 0.00 0.00 87 1017.8
20260903102305 40 155 0.0 0.0 0.00 0.00 0.00 87 1017.8
20260903101804 40 155 0.0 0.0 0.00 0.00 0.00 87 1017.7
20260903101304 40 155 0.0 0.0 0.00 0.00 0.00 86 1017.8
20260903100804 40 155 0.0 0.0 0.00 0.00 0.00 86 1017.8
20260903100304 40 155 0.0 0.0 0.00 0.00 0.00 86 1017.8
20260903095804 40 155 0.0 0.0 0.00 0.00 0.00 86 1017.7
20260903095306 40 155 0.0 0.0 0.00 0.00 0.00 86 1017.7
20260903094804 40 155 0.0 0.0 0.00 0.00 0.00 86 1017.7
20260903094304 40 155 0.0 0.0 0.00 0.00 0.00 86 1017.7
20260903093804 40 155 0.0 0.0 0.00 0.00 0.00 86 1017.6
20260903093304 40 155 0.0 0.0 0.00 0.00 0.00 85 1017.6
20260903092804 40 155 0.0 0.0 0.00 0.00 0.00 85 1017.5
20260903092306 40 155 0.0 0.0 0.00 0.00 0.00 85 1017.5
20260903091804 40 155 0.0 0.0 0.00 0.00 0.00 85 1017.4
20260903091304 40 155 0.0 0.0 0.00 0.00 0.00 85 1017.4
20260903090804 40 155 0.0 0.0 0.00 0.00 0.00 85 1017.5
20260903090304 40 155 0.0 0.0 0.00 0.00 0.00 85 1017.5
20260903085804 40 155 0.0 0.0 0.00 0.00 0.00 85 1017.6
20260903085305 40 155 0.0 0.0 0.00 0.00 0.00 84 1017.6
20260903084803 40 155 0.0 0.0 0.00 0.00 0.00 84 1017.6
20260903084304 41 155 0.0 0.0 0.00 0.00 0.00 84 1017.5
20260903083804 41 155 0.0 0.0 0.00 0.00 0.00 84 1017.6
20260903083303 41 155 0.0 0.0 0.00 0.00 0.00 84 1017.5
20260903082804 41 155 0.0 0.0 0.00 0.00 0.00 84 1017.5
20260903082306 41 155 0.0 0.0 0.00 0.00 0.00 84 1017.4
20260903081804 41 155 0.0 0.0 0.00 0.00 0.00 83 1017.4
20260903081304 41 155 0.0 0.0 0.00 0.00 0.00 83 1017.3
20260903080804 41 155 0.0 0.0 0.00 0.00 0.00 83 1017.2
20260903080305 42 155 0.0 0.0 0.00 0.00 0.00 83 1017.2
20260903075804 42 155 0.0 0.0 0.00 0.00 0.00 83 1017.2
20260903075306 42 155 0.0 0.0 0.00 0.00 0.00 83 1017.2
20260903074803 42 155 0.0 0.0 0.00 0.00 0.00 83 1017.1
20260903074304 42 155 0.0 0.0 0.00 0.00 0.00 82 1017.1
20260903073804 42 155 0.0 0.0 0.00 0.00 0.00 82 1017.1
20260903073304 43 155 0.0 0.0 0.00 0.00 0.00 82 1017.0
20260903072804 43 155 0.0 0.0 0.00 0.00 0.00 82 1016.9
20260903072306 43 155 0.0 0.0 0.00 0.00 0.00 82 1016.9
20260903071804 43 155 0.0 0.0 0.00 0.00 0.00 81 1016.8
20260903071304 43 155 0.0 1.0 0.00 0.00 0.00 81 1016.8
20260903070804 44 166 2.0 2.0 0.00 0.00 0.00 81 1016.9
20260903070305 44 160 0.0 0.0 0.00 0.00 0.00 80 1016.6
20260903065804 44 160 1.0 2.0 0.00 0.00 0.00 80 1016.7
20260903065306 44 34 0.0 0.0 0.00 0.00 0.00 80 1016.5
20260903064804 44 34 0.0 0.0 0.00 0.00 0.00 80 1016.4
20260903064304 45 34 0.0 0.0 0.00 0.00 0.00 79 1016.5
20260903063804 45 34 0.0 0.0 0.00 0.00 0.00 79 1016.5
20260903063304 45 162 0.0 0.0 0.00 0.00 0.00 78 1016.5
20260903062804 46 162 0.0 0.0 0.00 0.00 0.00 78 1016.4